Location: Cadenet
(43.7345°N, 5.3750°E)
Time: 18:21:53
(UTC+00:00)

USA 116 - Pass Details

Date: 18 February 2020
Orbit: 405 x 834 km, 97.9° (Epoch: 18 November)

Event Time Altitude Azimuth Distance (km) Brightness Sun altitude
Rises 05:54:34 0° 193° (SSW) 2,429 7.0 -7.8°
Reaches altitude 10° 05:56:55 10° 208° (SSW) 1,522 5.8 -7.3°
Maximum altitude 05:59:31 23° 263° (W) 946 4.4 -6.9°
Drops below altitude 10° 06:02:04 10° 318° (NW) 1,478 5.4 -6.4°
Sets 06:04:18 0° 334° (NNW) 2,339 6.6 -6.0°
